User: anonymous   Login
Location: *
(39.6167°S, 171.5333°W)
Time: 22:41:20
(UTC+00:00)
Language:

Gbstr 26 Del rocket - Orbit

View from above orbital plane
View from above orbital plane
View from above satellite
View from above satellite

Ground track
Ground track

The orbit data is extracted from the following two-line orbital elements,

1 25876U 99041E   21212.52773777  .00000070  00000-0  53956-4 0  9993
2 25876  51.7633 135.2509 0531688  97.2838 268.8815 14.04593723126115
Epoch (UTC): 31 July 2021 12:39:56
Eccentricity: 0.0531688
inclination: 51.7633°
perigee height: 492 km
apogee height: 1264 km
right ascension of ascending node: 135.2509°
argument of perigee: 97.2838°
revolutions per day: 14.04593723
mean anomaly at epoch: 268.8815°
orbit number at epoch: 12611

The dashed part of the orbit path shows where the satellite is in the earth's shadow,  

DLR